This is the latest recevied weather packets stored in our database for station/object DN9EM-2. If no packets are shown the sender has not sent any weather packets the latest 1 day(s).
| Time | Temp. | Humidity | Pressure | Rain* | Wind** | Luminosity | Snow |
|---|---|---|---|---|---|---|---|
| 1777977019 | 13.89° C | 68% | 1013.3 hPa | 0 mm | 0.45 m/s, 227° | - | - |
| 1777976437 | 13.89° C | 66% | 1013.3 hPa | 0 mm | 0 m/s | - | - |
| 1777975874 | 13.33° C | 68% | 1013.3 hPa | 0 mm | 0 m/s | - | - |
| 1777975272 | 13.89° C | 68% | 1013.4 hPa | 0 mm | 0.45 m/s, 212° | - | - |
| 1777974669 | 12.78° C | 70% | 1013.4 hPa | 0 mm | 0.45 m/s, 183° | - | - |
| 1777974066 | 13.33° C | 70% | 1013.5 hPa | 0 mm | 0 m/s | - | - |
| 1777973464 | 12.78° C | 70% | 1013.5 hPa | 0 mm | 0 m/s | - | - |
| 1777972861 | 12.78° C | 70% | 1013.5 hPa | 0 mm | 0.45 m/s, 210° | - | - |
| 1777972258 | 12.78° C | 70% | 1013.6 hPa | 0 mm | 0.45 m/s, 347° | - | - |
| 1777971655 | 12.22° C | 73% | 1013.6 hPa | 0 mm | 0 m/s | - | - |
| 1777971053 | 12.22° C | 74% | 1013.6 hPa | 0 mm | 0.45 m/s, 229° | - | - |
| 1777970450 | 11.67° C | 74% | 1013.5 hPa | 0 mm | 0 m/s | - | - |
| 1777969848 | 11.11° C | 76% | 1013.5 hPa | 0 mm | 0.45 m/s, 192° | - | - |
| 1777969245 | 11.11° C | 77% | 1013.4 hPa | 0 mm | 0.45 m/s, 189° | - | - |
| 1777968642 | 10.56° C | 78% | 1013.3 hPa | 0 mm | 0.45 m/s, 336° | - | - |
| 1777968040 | 10.56° C | 79% | 1013.3 hPa | 0 mm | 0.45 m/s, 190° | - | - |
| 1777967437 | 10° C | 79% | 1013.3 hPa | 0 mm | 0 m/s | - | - |
| 1777966842 | 10° C | 80% | 1013.3 hPa | 0 mm | 0.45 m/s, 309° | - | - |
| 1777966232 | 10° C | 80% | 1013.3 hPa | 0 mm | 0 m/s | - | - |
| 1777965629 | 9.44° C | 81% | 1013.2 hPa | 0 mm | 0 m/s | - | - |
| 1777965026 | 9.44° C | 81% | 1013.2 hPa | 0 mm | 0.45 m/s, 32° | - | - |
| 1777964424 | 9.44° C | 81% | 1013.2 hPa | 0 mm | 0 m/s | - | - |
| 1777963821 | 9.44° C | 81% | 1013.1 hPa | 0 mm | 0.45 m/s, 252° | - | - |
| 1777963219 | 9.44° C | 81% | 1013 hPa | 0 mm | 0 m/s | - | - |
| 1777962616 | 8.89° C | 83% | 1013.1 hPa | 0 mm | 0 m/s | - | - |
* Rain latest hour (hover to see other rain measurements)
** Current wind speed in m/s (hover to see current wind gust speed)